Time,TemperatureF,DewpointF,PressureIn,WindDirection,WindDirectionDegrees,WindSpeedMPH,WindSpeedGustMPH,Humidity,HourlyPrecipIn,Conditions,Clouds,dailyrainin,SoftwareType,DateUTC
2013-05-08 00:00:00,60.6,54.7,30.06,West,271,0.0,0.0,81,0.00,,,0.22,Wunderground v.1.15,2013-05-08 07:00:00,
2013-05-08 00:02:00,60.5,54.6,30.06,West,271,0.0,0.0,81,0.00,,,0.22,Wunderground v.1.15,2013-05-08 07:02:00,
2013-05-08 00:06:00,60.4,54.5,30.06,West,271,0.0,0.0,81,0.00,,,0.22,Wunderground v.1.15,2013-05-08 07:06:00,
2013-05-08 00:10:00,60.2,54.3,30.06,West,271,0.0,0.0,81,0.00,,,0.22,Wunderground v.1.15,2013-05-08 07:10:00,
2013-05-08 00:12:00,60.1,54.2,30.06,West,271,0.0,0.0,81,0.00,,,0.22,Wunderground v.1.15,2013-05-08 07:12:00,
2013-05-08 00:14:00,59.9,54.1,30.06,West,271,0.0,0.0,81,0.00,,,0.22,Wunderground v.1.15,2013-05-08 07:14:00,
2013-05-08 00:20:00,59.6,54.1,30.06,West,271,0.0,0.0,82,0.00,,,0.22,Wunderground v.1.15,2013-05-08 07:20:00,
2013-05-08 00:22:00,59.5,54.0,30.06,West,271,0.0,0.0,82,0.00,,,0.22,Wunderground v.1.15,2013-05-08 07:22:00,
2013-05-08 00:24:00,59.5,54.0,30.06,West,271,0.0,0.0,82,0.00,,,0.22,Wunderground v.1.15,2013-05-08 07:24:00,
2013-05-08 00:26:00,59.4,53.9,30.06,West,271,0.0,0.0,82,0.00,,,0.22,Wunderground v.1.15,2013-05-08 07:26:00,
2013-05-08 00:28:00,59.3,53.8,30.06,West,271,0.0,0.0,82,0.00,,,0.22,Wunderground v.1.15,2013-05-08 07:28:00,
2013-05-08 00:30:00,59.2,54.0,30.06,West,271,0.0,0.0,83,0.00,,,0.22,Wunderground v.1.15,2013-05-08 07:30:00,
2013-05-08 00:32:00,59.2,54.0,30.06,West,271,0.0,0.0,83,0.00,,,0.22,Wunderground v.1.15,2013-05-08 07:32:00,
2013-05-08 00:38:00,58.9,53.7,30.06,West,271,0.0,0.0,83,0.00,,,0.22,Wunderground v.1.15,2013-05-08 07:38:00,
2013-05-08 00:44:00,58.7,53.5,30.06,West,271,0.0,0.0,83,0.00,,,0.22,Wunderground v.1.15,2013-05-08 07:44:00,
2013-05-08 00:50:00,58.5,53.4,30.06,West,271,0.0,0.0,83,0.00,,,0.22,Wunderground v.1.15,2013-05-08 07:50:00,
2013-05-08 00:52:00,58.5,53.4,30.06,West,271,0.0,0.0,83,0.00,,,0.22,Wunderground v.1.15,2013-05-08 07:52:00,
2013-05-08 00:54:00,58.4,53.6,30.06,West,271,0.0,0.0,84,0.00,,,0.22,Wunderground v.1.15,2013-05-08 07:54:00,
2013-05-08 00:56:00,58.3,53.5,30.06,West,271,0.0,0.0,84,0.00,,,0.22,Wunderground v.1.15,2013-05-08 07:56:00,
2013-05-08 01:00:00,58.2,53.4,30.06,West,271,0.0,0.0,84,0.00,,,0.00,Wunderground v.1.15,2013-05-08 08:00:00,
2013-05-08 01:04:00,58.0,53.2,30.06,West,271,0.0,0.0,84,0.00,,,0.00,Wunderground v.1.15,2013-05-08 08:04:00,
2013-05-08 01:06:00,58.0,53.2,30.06,West,271,0.0,0.0,84,0.00,,,0.00,Wunderground v.1.15,2013-05-08 08:06:00,
2013-05-08 01:08:00,57.9,53.1,30.06,West,271,0.0,0.0,84,0.00,,,0.00,Wunderground v.1.15,2013-05-08 08:08:00,
2013-05-08 01:12:00,57.8,53.0,30.06,West,271,0.0,0.0,84,0.00,,,0.00,Wunderground v.1.15,2013-05-08 08:12:00,
2013-05-08 01:14:00,57.7,52.9,30.06,West,271,0.0,0.0,84,0.00,,,0.00,Wunderground v.1.15,2013-05-08 08:14:00,
2013-05-08 01:18:00,57.6,53.1,30.06,West,271,0.0,0.0,85,0.00,,,0.00,Wunderground v.1.15,2013-05-08 08:18:00,
2013-05-08 01:20:00,57.5,53.0,30.06,West,271,0.0,0.0,85,0.00,,,0.00,Wunderground v.1.15,2013-05-08 08:20:00,
2013-05-08 01:26:00,57.5,53.0,30.06,West,271,0.0,0.0,85,0.00,,,0.00,Wunderground v.1.15,2013-05-08 08:26:00,
2013-05-08 01:28:00,57.5,53.0,30.06,West,271,0.0,0.0,85,0.00,,,0.00,Wunderground v.1.15,2013-05-08 08:28:00,
2013-05-08 01:30:00,57.3,52.8,30.06,West,271,0.0,0.0,85,0.00,,,0.00,Wunderground v.1.15,2013-05-08 08:30:00,
2013-05-08 01:32:00,57.3,52.8,30.06,West,271,0.0,0.0,85,0.00,,,0.00,Wunderground v.1.15,2013-05-08 08:32:00,
2013-05-08 01:36:00,57.1,52.6,30.06,West,271,0.0,0.0,85,0.00,,,0.00,Wunderground v.1.15,2013-05-08 08:36:00,
2013-05-08 01:38:00,57.0,52.5,30.06,West,271,0.0,0.0,85,0.00,,,0.00,Wunderground v.1.15,2013-05-08 08:38:00,
2013-05-08 01:40:00,56.9,52.4,30.06,West,271,0.0,0.0,85,0.00,,,0.00,Wunderground v.1.15,2013-05-08 08:40:00,
2013-05-08 01:42:00,56.9,52.4,30.06,West,271,0.0,0.0,85,0.00,,,0.00,Wunderground v.1.15,2013-05-08 08:42:00,
2013-05-08 01:46:00,56.8,52.7,30.06,West,271,0.0,0.0,86,0.00,,,0.00,Wunderground v.1.15,2013-05-08 08:46:00,
2013-05-08 01:52:00,56.7,52.6,30.06,West,271,0.0,0.0,86,0.00,,,0.00,Wunderground v.1.15,2013-05-08 08:52:00,
2013-05-08 01:54:00,56.6,52.5,30.06,West,271,0.0,0.0,86,0.00,,,0.00,Wunderground v.1.15,2013-05-08 08:54:00,
2013-05-08 01:56:00,56.5,52.4,30.06,West,271,0.0,0.0,86,0.00,,,0.00,Wunderground v.1.15,2013-05-08 08:56:00,
2013-05-08 02:02:00,56.3,52.2,30.06,West,271,0.0,0.0,86,0.00,,,0.00,Wunderground v.1.15,2013-05-08 09:02:00,
2013-05-08 07:16:00,60.6,56.4,30.07,West,271,0.0,0.0,86,0.00,,,0.00,Wunderground v.1.15,2013-05-08 14:16:00,
2013-05-08 07:18:00,60.8,56.6,30.07,West,271,0.0,0.0,86,0.00,,,0.00,Wunderground v.1.15,2013-05-08 14:18:00,
2013-05-08 07:20:00,61.0,56.8,30.08,West,271,0.0,0.0,86,0.00,,,0.00,Wunderground v.1.15,2013-05-08 14:20:00,
2013-05-08 07:24:00,61.3,56.8,30.07,West,271,0.0,0.0,85,0.00,,,0.00,Wunderground v.1.15,2013-05-08 14:24:00,
2013-05-08 07:26:00,61.4,56.8,30.08,West,271,0.0,0.0,85,0.00,,,0.00,Wunderground v.1.15,2013-05-08 14:26:00,
2013-05-08 07:30:00,61.5,56.6,30.08,West,271,0.0,0.0,84,0.00,,,0.00,Wunderground v.1.15,2013-05-08 14:30:00,
2013-05-08 07:32:00,61.6,56.7,30.08,West,271,0.0,0.0,84,0.00,,,0.00,Wunderground v.1.15,2013-05-08 14:32:00,
2013-05-08 07:38:00,61.8,56.6,30.08,West,271,0.0,0.0,83,0.00,,,0.00,Wunderground v.1.15,2013-05-08 14:38:00,
2013-05-08 07:40:00,61.9,56.7,30.08,West,271,0.0,0.0,83,0.00,,,0.00,Wunderground v.1.15,2013-05-08 14:40:00,
2013-05-08 07:46:00,62.1,56.5,30.08,West,271,0.0,3.0,82,0.00,,,0.00,Wunderground v.1.15,2013-05-08 14:46:00,
2013-05-08 07:48:00,62.1,56.5,30.08,West,271,1.0,3.0,82,0.00,,,0.00,Wunderground v.1.15,2013-05-08 14:48:00,
2013-05-08 07:52:00,62.2,56.3,30.08,West,271,1.0,3.0,81,0.00,,,0.00,Wunderground v.1.15,2013-05-08 14:52:00,
2013-05-08 07:56:00,62.3,56.4,30.08,West,271,1.0,1.0,81,0.00,,,0.00,Wunderground v.1.15,2013-05-08 14:56:00,
2013-05-08 07:58:00,62.4,56.5,30.08,West,271,1.0,1.0,81,0.00,,,0.00,Wunderground v.1.15,2013-05-08 14:58:00,
2013-05-08 08:02:00,62.7,56.8,30.08,West,271,1.0,1.0,81,0.00,,,0.00,Wunderground v.1.15,2013-05-08 15:02:00,
2013-05-08 08:04:00,62.9,57.0,30.08,West,271,1.0,1.0,81,0.00,,,0.00,Wunderground v.1.15,2013-05-08 15:04:00,
2013-05-08 08:08:00,63.3,57.0,30.08,West,271,1.0,1.0,80,0.00,,,0.00,Wunderground v.1.15,2013-05-08 15:08:00,
2013-05-08 08:12:00,63.6,57.0,30.08,West,272,1.0,4.0,79,0.00,,,0.00,Wunderground v.1.15,2013-05-08 15:12:00,
2013-05-08 08:14:00,63.6,57.0,30.08,WNW,284,1.0,4.0,79,0.00,,,0.00,Wunderground v.1.15,2013-05-08 15:14:00,
2013-05-08 08:16:00,63.6,57.0,30.08,WSW,248,2.0,4.0,79,0.00,,,0.00,Wunderground v.1.15,2013-05-08 15:16:00,
2013-05-08 08:20:00,63.6,57.0,30.08,West,266,2.0,2.0,79,0.00,,,0.00,Wunderground v.1.15,2013-05-08 15:20:00,
2013-05-08 08:22:00,63.7,57.1,30.08,West,266,2.0,2.0,79,0.00,,,0.00,Wunderground v.1.15,2013-05-08 15:22:00,
2013-05-08 08:24:00,63.8,57.2,30.08,West,266,2.0,2.0,79,0.00,,,0.00,Wunderground v.1.15,2013-05-08 15:24:00,
2013-05-08 08:28:00,64.2,57.2,30.08,West,275,1.0,3.0,78,0.00,,,0.00,Wunderground v.1.15,2013-05-08 15:28:00,
2013-05-08 08:30:00,64.3,57.3,30.08,WNW,287,1.0,6.0,78,0.00,,,0.00,Wunderground v.1.15,2013-05-08 15:30:00,
2013-05-08 08:34:00,64.5,57.1,30.08,WNW,286,1.0,6.0,77,0.00,,,0.00,Wunderground v.1.15,2013-05-08 15:34:00,
2013-05-08 08:36:00,64.7,57.3,30.08,West,279,1.0,6.0,77,0.00,,,0.00,Wunderground v.1.15,2013-05-08 15:36:00,
2013-05-08 08:38:00,64.8,57.4,30.08,West,279,1.0,6.0,77,0.00,,,0.00,Wunderground v.1.15,2013-05-08 15:38:00,
2013-05-08 08:40:00,65.0,56.9,30.08,West,279,1.0,1.0,75,0.00,,,0.00,Wunderground v.1.15,2013-05-08 15:40:00,
2013-05-08 08:42:00,65.2,57.1,30.08,West,279,1.0,1.0,75,0.00,,,0.00,Wunderground v.1.15,2013-05-08 15:42:00,
2013-05-08 08:46:00,65.7,57.9,30.08,NNW,335,1.0,2.0,76,0.00,,,0.00,Wunderground v.1.15,2013-05-08 15:46:00,
2013-05-08 08:48:00,65.9,57.7,30.08,NW,323,1.0,2.0,75,0.00,,,0.00,Wunderground v.1.15,2013-05-08 15:48:00,
2013-05-08 08:50:00,66.1,57.6,30.08,NW,323,0.0,0.0,74,0.00,,,0.00,Wunderground v.1.15,2013-05-08 15:50:00,
2013-05-08 08:54:00,66.3,57.8,30.08,West,271,1.0,5.0,74,0.00,,,0.00,Wunderground v.1.15,2013-05-08 15:54:00,
2013-05-08 08:56:00,66.2,56.9,30.08,West,270,1.0,5.0,72,0.00,,,0.00,Wunderground v.1.15,2013-05-08 15:56:00,
2013-05-08 09:00:00,65.8,56.9,30.08,West,270,1.0,3.0,73,0.00,,,0.00,Wunderground v.1.15,2013-05-08 16:00:00,
2013-05-08 09:02:00,65.7,56.8,30.08,West,270,2.0,3.0,73,0.00,,,0.00,Wunderground v.1.15,2013-05-08 16:02:00,
2013-05-08 09:04:00,65.5,56.6,30.08,West,270,1.0,3.0,73,0.00,,,0.00,Wunderground v.1.15,2013-05-08 16:04:00,
2013-05-08 09:06:00,65.4,56.9,30.08,West,270,1.0,3.0,74,0.00,,,0.00,Wunderground v.1.15,2013-05-08 16:06:00,
2013-05-08 09:08:00,65.2,56.7,30.08,SW,224,1.0,3.0,74,0.00,,,0.00,Wunderground v.1.15,2013-05-08 16:08:00,
2013-05-08 09:10:00,65.1,56.6,30.08,SW,232,2.0,2.0,74,0.00,,,0.00,Wunderground v.1.15,2013-05-08 16:10:00,
2013-05-08 09:14:00,65.1,57.0,30.08,SW,232,2.0,2.0,75,0.00,,,0.00,Wunderground v.1.15,2013-05-08 16:14:00,
2013-05-08 09:18:00,65.3,57.2,30.08,SSW,193,2.0,3.0,75,0.00,,,0.00,Wunderground v.1.15,2013-05-08 16:18:00,
2013-05-08 09:22:00,65.5,57.4,30.08,SW,229,2.0,5.0,75,0.00,,,0.00,Wunderground v.1.15,2013-05-08 16:22:00,
2013-05-08 09:24:00,65.5,57.4,30.08,SW,232,3.0,5.0,75,0.00,,,0.00,Wunderground v.1.15,2013-05-08 16:24:00,
2013-05-08 09:26:00,65.5,57.7,30.08,SW,230,3.0,5.0,76,0.00,,,0.00,Wunderground v.1.15,2013-05-08 16:26:00,
2013-05-08 09:28:00,65.5,57.4,30.08,SW,214,3.0,5.0,75,0.00,,,0.00,Wunderground v.1.15,2013-05-08 16:28:00,
2013-05-08 09:32:00,65.6,57.5,30.08,SW,219,4.0,5.0,75,0.00,,,0.00,Wunderground v.1.15,2013-05-08 16:32:00,
2013-05-08 09:34:00,65.6,57.1,30.08,SW,225,4.0,5.0,74,0.00,,,0.00,Wunderground v.1.15,2013-05-08 16:34:00,
2013-05-08 09:38:00,65.5,57.4,30.08,SSW,211,5.0,5.0,75,0.00,,,0.00,Wunderground v.1.15,2013-05-08 16:38:00,
2013-05-08 09:40:00,65.5,57.7,30.08,SSW,199,4.0,5.0,76,0.00,,,0.00,Wunderground v.1.15,2013-05-08 16:40:00,
2013-05-08 11:02:00,67.2,57.1,30.08,SW,216,4.0,4.0,70,0.00,,,0.00,Wunderground v.1.15,2013-05-08 18:02:00,
2013-05-08 11:04:00,67.4,55.6,30.09,SSW,193,4.0,10.0,66,0.00,,,0.00,Wunderground v.1.15,2013-05-08 18:04:00,
2013-05-08 11:06:00,67.3,55.5,30.08,SW,230,4.0,10.0,66,0.00,,,0.00,Wunderground v.1.15,2013-05-08 18:06:00,
2013-05-08 11:08:00,67.3,56.0,30.08,SSW,201,5.0,10.0,67,0.00,,,0.00,Wunderground v.1.15,2013-05-08 18:08:00,
2013-05-08 11:10:00,67.3,56.4,30.08,SSW,209,5.0,5.0,68,0.00,,,0.00,Wunderground v.1.15,2013-05-08 18:10:00,
2013-05-08 11:14:00,67.5,56.2,30.08,South,188,6.0,6.0,67,0.00,,,0.00,Wunderground v.1.15,2013-05-08 18:14:00,
2013-05-08 11:18:00,67.6,55.8,30.08,South,181,5.0,6.0,66,0.00,,,0.00,Wunderground v.1.15,2013-05-08 18:18:00,
2013-05-08 11:20:00,67.8,56.0,30.08,South,174,5.0,7.0,66,0.00,,,0.00,Wunderground v.1.15,2013-05-08 18:20:00,
2013-05-08 11:22:00,67.9,55.3,30.08,SSW,192,5.0,7.0,64,0.00,,,0.00,Wunderground v.1.15,2013-05-08 18:22:00,
2013-05-08 11:28:00,68.3,55.6,30.08,SW,227,5.0,11.0,64,0.00,,,0.00,Wunderground v.1.15,2013-05-08 18:28:00,
2013-05-08 11:30:00,68.1,56.3,30.08,SW,225,5.0,5.0,66,0.00,,,0.00,Wunderground v.1.15,2013-05-08 18:30:00,
2013-05-08 11:32:00,68.1,55.9,30.08,SW,225,5.0,5.0,65,0.00,,,0.00,Wunderground v.1.15,2013-05-08 18:32:00,
2013-05-08 11:34:00,68.4,56.2,30.08,SSW,193,5.0,11.0,65,0.00,,,0.00,Wunderground v.1.15,2013-05-08 18:34:00,
2013-05-08 11:38:00,68.3,56.1,30.08,South,175,6.0,11.0,65,0.00,,,0.00,Wunderground v.1.15,2013-05-08 18:38:00,
2013-05-08 11:40:00,68.1,55.9,30.08,WSW,244,6.0,9.0,65,0.00,,,0.00,Wunderground v.1.15,2013-05-08 18:40:00,
2013-05-08 11:44:00,68.0,56.6,30.08,South,187,6.0,9.0,67,0.00,,,0.00,Wunderground v.1.15,2013-05-08 18:44:00,
2013-05-08 11:48:00,68.0,54.5,30.08,West,259,6.0,9.0,62,0.00,,,0.00,Wunderground v.1.15,2013-05-08 18:48:00,
2013-05-08 11:50:00,68.1,55.5,30.08,South,177,6.0,9.0,64,0.00,,,0.00,Wunderground v.1.15,2013-05-08 18:50:00,
2013-05-08 11:52:00,68.2,55.6,30.08,SSW,205,6.0,9.0,64,0.00,,,0.00,Wunderground v.1.15,2013-05-08 18:52:00,
2013-05-08 11:54:00,68.3,55.6,30.08,SW,223,6.0,9.0,64,0.00,,,0.00,Wunderground v.1.15,2013-05-08 18:54:00,
2013-05-08 11:56:00,68.4,56.2,30.08,SSW,194,6.0,9.0,65,0.00,,,0.00,Wunderground v.1.15,2013-05-08 18:56:00,
2013-05-08 11:58:00,68.4,54.9,30.08,SW,221,6.0,9.0,62,0.00,,,0.00,Wunderground v.1.15,2013-05-08 18:58:00,
2013-05-08 12:02:00,68.3,54.8,30.08,SW,215,6.0,11.0,62,0.00,,,0.00,Wunderground v.1.15,2013-05-08 19:02:00,
2013-05-08 12:04:00,68.3,55.6,30.08,SSW,202,6.0,11.0,64,0.00,,,0.00,Wunderground v.1.15,2013-05-08 19:04:00,
2013-05-08 12:06:00,68.2,56.0,30.08,SW,233,6.0,11.0,65,0.00,,,0.00,Wunderground v.1.15,2013-05-08 19:06:00,
2013-05-08 12:08:00,68.1,55.0,30.08,WSW,246,7.0,11.0,63,0.00,,,0.00,Wunderground v.1.15,2013-05-08 19:08:00,
2013-05-08 12:10:00,68.0,56.2,30.07,WSW,248,7.0,7.0,66,0.00,,,0.00,Wunderground v.1.15,2013-05-08 19:10:00,
2013-05-08 12:12:00,68.0,55.8,30.07,SW,224,6.0,7.0,65,0.00,,,0.00,Wunderground v.1.15,2013-05-08 19:12:00,
2013-05-08 12:18:00,68.1,56.3,30.07,SW,236,5.0,7.0,66,0.00,,,0.00,Wunderground v.1.15,2013-05-08 19:18:00,
2013-05-08 12:20:00,68.1,54.6,30.07,West,268,5.0,6.0,62,0.00,,,0.00,Wunderground v.1.15,2013-05-08 19:20:00,
2013-05-08 12:22:00,68.1,54.6,30.08,WSW,238,6.0,12.0,62,0.00,,,0.00,Wunderground v.1.15,2013-05-08 19:22:00,
2013-05-08 12:24:00,67.8,54.3,30.08,West,261,6.0,12.0,62,0.00,,,0.00,Wunderground v.1.15,2013-05-08 19:24:00,
2013-05-08 12:26:00,67.6,54.1,30.07,West,269,6.0,12.0,62,0.00,,,0.00,Wunderground v.1.15,2013-05-08 19:26:00,
2013-05-08 12:28:00,67.6,54.6,30.07,SSW,212,6.0,12.0,63,0.00,,,0.00,Wunderground v.1.15,2013-05-08 19:28:00,
2013-05-08 12:30:00,67.4,54.4,30.08,SW,215,7.0,11.0,63,0.00,,,0.00,Wunderground v.1.15,2013-05-08 19:30:00,
2013-05-08 12:34:00,67.2,53.7,30.08,SW,223,7.0,11.0,62,0.00,,,0.00,Wunderground v.1.15,2013-05-08 19:34:00,
2013-05-08 12:40:00,67.3,53.8,30.07,South,171,6.0,7.0,62,0.00,,,0.00,Wunderground v.1.15,2013-05-08 19:40:00,
2013-05-08 12:42:00,67.3,53.4,30.07,South,185,6.0,7.0,61,0.00,,,0.00,Wunderground v.1.15,2013-05-08 19:42:00,
2013-05-08 12:46:00,67.5,53.1,30.07,South,190,6.0,9.0,60,0.00,,,0.00,Wunderground v.1.15,2013-05-08 19:46:00,
2013-05-08 12:48:00,67.6,52.8,30.07,SW,223,6.0,9.0,59,0.00,,,0.00,Wunderground v.1.15,2013-05-08 19:48:00,
2013-05-08 12:50:00,67.5,52.2,30.07,South,188,6.0,6.0,58,0.00,,,0.00,Wunderground v.1.15,2013-05-08 19:50:00,
2013-05-08 12:52:00,67.6,52.8,30.07,SW,231,6.0,6.0,59,0.00,,,0.00,Wunderground v.1.15,2013-05-08 19:52:00,
2013-05-08 12:54:00,67.7,52.9,30.07,West,261,6.0,9.0,59,0.00,,,0.00,Wunderground v.1.15,2013-05-08 19:54:00,
2013-05-08 12:56:00,67.9,51.6,30.07,South,190,6.0,9.0,56,0.00,,,0.00,Wunderground v.1.15,2013-05-08 19:56:00,
2013-05-08 12:58:00,68.0,52.2,30.07,South,186,6.0,9.0,57,0.00,,,0.00,Wunderground v.1.15,2013-05-08 19:58:00,
2013-05-08 13:02:00,68.3,52.9,30.07,WSW,240,6.0,9.0,58,0.00,,,0.00,Wunderground v.1.15,2013-05-08 20:02:00,
2013-05-08 13:04:00,68.4,53.0,30.07,SW,234,7.0,9.0,58,0.00,,,0.00,Wunderground v.1.15,2013-05-08 20:04:00,
2013-05-08 13:06:00,68.6,53.7,30.07,WSW,240,6.0,9.0,59,0.00,,,0.00,Wunderground v.1.15,2013-05-08 20:06:00,
2013-05-08 13:08:00,69.0,53.6,30.07,SW,233,6.0,11.0,58,0.00,,,0.00,Wunderground v.1.15,2013-05-08 20:08:00,
2013-05-08 13:10:00,69.0,53.6,30.07,SW,226,6.0,6.0,58,0.00,,,0.00,Wunderground v.1.15,2013-05-08 20:10:00,
2013-05-08 13:18:00,69.2,53.3,30.07,SW,220,7.0,7.0,57,0.00,,,0.00,Wunderground v.1.15,2013-05-08 20:18:00,
2013-05-08 13:20:00,69.1,53.2,30.07,SW,224,7.0,7.0,57,0.00,,,0.00,Wunderground v.1.15,2013-05-08 20:20:00,
2013-05-08 13:22:00,69.0,52.6,30.07,SW,220,7.0,7.0,56,0.00,,,0.00,Wunderground v.1.15,2013-05-08 20:22:00,
2013-05-08 13:24:00,69.0,51.7,30.07,SW,215,7.0,7.0,54,0.00,,,0.00,Wunderground v.1.15,2013-05-08 20:24:00,
2013-05-08 13:28:00,69.0,52.2,30.07,SSW,192,7.0,13.0,55,0.00,,,0.00,Wunderground v.1.15,2013-05-08 20:28:00,
2013-05-08 13:30:00,69.4,52.0,30.07,WSW,237,6.0,10.0,54,0.00,,,0.00,Wunderground v.1.15,2013-05-08 20:30:00,
2013-05-08 13:34:00,69.6,52.7,30.07,SW,219,6.0,13.0,55,0.00,,,0.00,Wunderground v.1.15,2013-05-08 20:34:00,
2013-05-08 13:38:00,70.0,52.1,30.07,SW,229,6.0,13.0,53,0.00,,,0.00,Wunderground v.1.15,2013-05-08 20:38:00,
2013-05-08 13:40:00,69.9,52.5,30.07,SW,219,7.0,9.0,54,0.00,,,0.00,Wunderground v.1.15,2013-05-08 20:40:00,
2013-05-08 13:42:00,69.8,51.9,30.07,SW,219,7.0,9.0,53,0.00,,,0.00,Wunderground v.1.15,2013-05-08 20:42:00,
2013-05-08 13:46:00,69.5,52.6,30.07,WSW,240,8.0,9.0,55,0.00,,,0.00,Wunderground v.1.15,2013-05-08 20:46:00,
2013-05-08 13:48:00,69.4,51.5,30.07,SW,218,8.0,9.0,53,0.00,,,0.00,Wunderground v.1.15,2013-05-08 20:48:00,
2013-05-08 13:50:00,69.4,52.5,30.07,SW,215,7.0,7.0,55,0.00,,,0.00,Wunderground v.1.15,2013-05-08 20:50:00,
2013-05-08 13:54:00,69.0,51.7,30.07,WSW,244,7.0,9.0,54,0.00,,,0.00,Wunderground v.1.15,2013-05-08 20:54:00,
2013-05-08 13:56:00,68.8,52.5,30.07,SSW,201,7.0,9.0,56,0.00,,,0.00,Wunderground v.1.15,2013-05-08 20:56:00,
2013-05-08 13:58:00,68.8,52.5,30.07,SW,215,7.0,9.0,56,0.00,,,0.00,Wunderground v.1.15,2013-05-08 20:58:00,
2013-05-08 14:00:00,69.0,53.1,30.07,SW,232,7.0,7.0,57,0.00,,,0.00,Wunderground v.1.15,2013-05-08 21:00:00,
2013-05-08 14:04:00,69.4,53.5,30.07,SSW,196,6.0,9.0,57,0.00,,,0.00,Wunderground v.1.15,2013-05-08 21:04:00,
2013-05-08 14:06:00,69.7,53.8,30.07,WSW,250,6.0,9.0,57,0.00,,,0.00,Wunderground v.1.15,2013-05-08 21:06:00,
2013-05-08 14:12:00,70.0,52.6,30.07,SSW,208,7.0,9.0,54,0.00,,,0.00,Wunderground v.1.15,2013-05-08 21:12:00,
2013-05-08 14:14:00,70.0,53.6,30.07,SW,227,7.0,9.0,56,0.00,,,0.00,Wunderground v.1.15,2013-05-08 21:14:00,
2013-05-08 14:16:00,70.2,53.3,30.07,WSW,241,7.0,9.0,55,0.00,,,0.00,Wunderground v.1.15,2013-05-08 21:16:00,
2013-05-08 14:18:00,70.3,52.4,30.07,SW,233,7.0,9.0,53,0.00,,,0.00,Wunderground v.1.15,2013-05-08 21:18:00,
2013-05-08 14:20:00,70.4,52.4,30.06,SW,227,7.0,12.0,53,0.00,,,0.00,Wunderground v.1.15,2013-05-08 21:20:00,
2013-05-08 14:22:00,70.3,52.4,30.07,SW,232,7.0,12.0,53,0.00,,,0.00,Wunderground v.1.15,2013-05-08 21:22:00,
2013-05-08 14:24:00,70.3,52.4,30.06,SW,233,7.0,12.0,53,0.00,,,0.00,Wunderground v.1.15,2013-05-08 21:24:00,
2013-05-08 14:26:00,70.0,52.1,30.07,West,271,7.0,12.0,53,0.00,,,0.00,Wunderground v.1.15,2013-05-08 21:26:00,
2013-05-08 14:30:00,70.0,51.6,30.07,SSW,192,8.0,12.0,52,0.00,,,0.00,Wunderground v.1.15,2013-05-08 21:30:00,
2013-05-08 14:32:00,70.0,51.0,30.07,WSW,248,8.0,12.0,51,0.00,,,0.00,Wunderground v.1.15,2013-05-08 21:32:00,
2013-05-08 14:36:00,69.9,53.0,30.07,SW,227,7.0,12.0,55,0.00,,,0.00,Wunderground v.1.15,2013-05-08 21:36:00,
2013-05-08 14:40:00,70.4,54.0,30.06,WSW,243,8.0,8.0,56,0.00,,,0.00,Wunderground v.1.15,2013-05-08 21:40:00,
2013-05-08 14:42:00,70.3,55.3,30.06,SSW,193,7.0,8.0,59,0.00,,,0.00,Wunderground v.1.15,2013-05-08 21:42:00,
2013-05-08 14:44:00,70.3,55.8,30.06,South,187,7.0,8.0,60,0.00,,,0.00,Wunderground v.1.15,2013-05-08 21:44:00,
2013-05-08 14:48:00,70.4,54.0,30.06,West,259,8.0,8.0,56,0.00,,,0.00,Wunderground v.1.15,2013-05-08 21:48:00,
2013-05-08 14:50:00,70.4,55.4,30.06,SW,225,7.0,13.0,59,0.00,,,0.00,Wunderground v.1.15,2013-05-08 21:50:00,
2013-05-08 14:52:00,70.2,54.2,30.06,South,182,8.0,13.0,57,0.00,,,0.00,Wunderground v.1.15,2013-05-08 21:52:00,
2013-05-08 14:54:00,69.9,54.9,30.06,SSW,207,8.0,14.0,59,0.00,,,0.00,Wunderground v.1.15,2013-05-08 21:54:00,
2013-05-08 14:58:00,69.9,55.4,30.06,SSW,207,8.0,14.0,60,0.00,,,0.00,Wunderground v.1.15,2013-05-08 21:58:00,
2013-05-08 15:02:00,70.1,54.2,30.06,SW,228,8.0,12.0,57,0.00,,,0.00,Wunderground v.1.15,2013-05-08 22:02:00,
2013-05-08 15:04:00,69.9,53.5,30.06,SSW,205,8.0,12.0,56,0.00,,,0.00,Wunderground v.1.15,2013-05-08 22:04:00,
2013-05-08 15:06:00,69.8,53.4,30.06,SW,226,8.0,12.0,56,0.00,,,0.00,Wunderground v.1.15,2013-05-08 22:06:00,
2013-05-08 15:12:00,70.1,52.7,30.06,SSW,201,8.0,11.0,54,0.00,,,0.00,Wunderground v.1.15,2013-05-08 22:12:00,
2013-05-08 15:14:00,70.3,52.9,30.06,SW,232,8.0,11.0,54,0.00,,,0.00,Wunderground v.1.15,2013-05-08 22:14:00,
2013-05-08 15:18:00,70.3,53.9,30.06,WSW,247,7.0,11.0,56,0.00,,,0.00,Wunderground v.1.15,2013-05-08 22:18:00,
2013-05-08 15:20:00,70.6,54.1,30.06,SW,214,6.0,6.0,56,0.00,,,0.00,Wunderground v.1.15,2013-05-08 22:20:00,
2013-05-08 15:22:00,70.7,54.2,30.06,WSW,244,7.0,11.0,56,0.00,,,0.00,Wunderground v.1.15,2013-05-08 22:22:00,
2013-05-08 15:26:00,70.6,54.1,30.06,SW,229,7.0,11.0,56,0.00,,,0.00,Wunderground v.1.15,2013-05-08 22:26:00,
2013-05-08 15:30:00,70.4,54.4,30.06,WSW,248,8.0,8.0,57,0.00,,,0.00,Wunderground v.1.15,2013-05-08 22:30:00,
2013-05-08 15:32:00,70.4,54.4,30.06,WSW,254,8.0,8.0,57,0.00,,,0.00,Wunderground v.1.15,2013-05-08 22:32:00,
2013-05-08 15:38:00,70.5,55.0,30.05,SW,229,7.0,8.0,58,0.00,,,0.00,Wunderground v.1.15,2013-05-08 22:38:00,
2013-05-08 15:42:00,70.9,55.9,30.06,WSW,252,6.0,7.0,59,0.00,,,0.00,Wunderground v.1.15,2013-05-08 22:42:00,
2013-05-08 15:44:00,70.9,54.9,30.06,WSW,248,6.0,7.0,57,0.00,,,0.00,Wunderground v.1.15,2013-05-08 22:44:00,
2013-05-08 15:46:00,70.8,55.3,30.05,SW,224,6.0,7.0,58,0.00,,,0.00,Wunderground v.1.15,2013-05-08 22:46:00,
2013-05-08 15:50:00,70.3,55.3,30.06,SW,214,6.0,6.0,59,0.00,,,0.00,Wunderground v.1.15,2013-05-08 22:50:00,
2013-05-08 15:52:00,70.2,55.2,30.05,SW,223,7.0,7.0,59,0.00,,,0.00,Wunderground v.1.15,2013-05-08 22:52:00,
2013-05-08 15:54:00,70.1,55.6,30.06,SSW,203,7.0,7.0,60,0.00,,,0.00,Wunderground v.1.15,2013-05-08 22:54:00,
2013-05-08 15:56:00,70.1,55.1,30.05,WSW,240,7.0,7.0,59,0.00,,,0.00,Wunderground v.1.15,2013-05-08 22:56:00,
2013-05-08 15:58:00,70.1,55.6,30.06,WSW,240,6.0,7.0,60,0.00,,,0.00,Wunderground v.1.15,2013-05-08 22:58:00,
2013-05-08 16:02:00,70.2,55.7,30.05,SSW,210,6.0,7.0,60,0.00,,,0.00,Wunderground v.1.15,2013-05-08 23:02:00,
2013-05-08 16:04:00,70.3,54.8,30.05,SSW,209,6.0,11.0,58,0.00,,,0.00,Wunderground v.1.15,2013-05-08 23:04:00,
2013-05-08 16:06:00,70.2,54.2,30.06,SSW,208,6.0,11.0,57,0.00,,,0.00,Wunderground v.1.15,2013-05-08 23:06:00,
2013-05-08 16:08:00,70.1,55.1,30.06,WSW,252,6.0,11.0,59,0.00,,,0.00,Wunderground v.1.15,2013-05-08 23:08:00,
2013-05-08 16:10:00,69.9,54.4,30.06,West,274,7.0,7.0,58,0.00,,,0.00,Wunderground v.1.15,2013-05-08 23:10:00,
2013-05-08 16:14:00,70.0,55.0,30.05,WSW,242,7.0,7.0,59,0.00,,,0.00,Wunderground v.1.15,2013-05-08 23:14:00,
2013-05-08 16:20:00,69.9,54.4,30.06,West,266,7.0,7.0,58,0.00,,,0.00,Wunderground v.1.15,2013-05-08 23:20:00,
2013-05-08 16:22:00,69.8,54.4,30.05,SW,236,6.0,7.0,58,0.00,,,0.00,Wunderground v.1.15,2013-05-08 23:22:00,
2013-05-08 16:26:00,69.7,54.3,30.05,SW,217,7.0,7.0,58,0.00,,,0.00,Wunderground v.1.15,2013-05-08 23:26:00,
2013-05-08 16:28:00,69.7,54.3,30.05,SW,232,7.0,7.0,58,0.00,,,0.00,Wunderground v.1.15,2013-05-08 23:28:00,
2013-05-08 16:30:00,69.7,54.3,30.05,SSW,212,6.0,10.0,58,0.00,,,0.00,Wunderground v.1.15,2013-05-08 23:30:00,
2013-05-08 16:32:00,69.6,54.2,30.05,WSW,238,7.0,10.0,58,0.00,,,0.00,Wunderground v.1.15,2013-05-08 23:32:00,
2013-05-08 16:34:00,69.5,53.6,30.05,WSW,243,7.0,10.0,57,0.00,,,0.00,Wunderground v.1.15,2013-05-08 23:34:00,
2013-05-08 16:36:00,69.5,53.6,30.05,SW,219,7.0,10.0,57,0.00,,,0.00,Wunderground v.1.15,2013-05-08 23:36:00,
2013-05-08 16:38:00,69.5,53.6,30.05,WSW,242,7.0,10.0,57,0.00,,,0.00,Wunderground v.1.15,2013-05-08 23:38:00,
2013-05-08 16:42:00,69.5,53.1,30.05,SSW,193,7.0,7.0,56,0.00,,,0.00,Wunderground v.1.15,2013-05-08 23:42:00,
2013-05-08 16:48:00,69.7,53.8,30.05,SW,215,6.0,8.0,57,0.00,,,0.00,Wunderground v.1.15,2013-05-08 23:48:00,
2013-05-08 16:54:00,69.8,53.9,30.05,SW,216,5.0,7.0,57,0.00,,,0.00,Wunderground v.1.15,2013-05-08 23:54:00,
2013-05-08 16:56:00,69.8,54.4,30.05,SW,223,5.0,7.0,58,0.00,,,0.00,Wunderground v.1.15,2013-05-08 23:56:00,
2013-05-08 16:58:00,69.9,54.4,30.05,South,184,5.0,7.0,58,0.00,,,0.00,Wunderground v.1.15,2013-05-08 23:58:00,
2013-05-08 17:00:00,69.9,54.4,30.05,SW,223,5.0,6.0,58,0.00,,,0.00,Wunderground v.1.15,2013-05-09 00:00:00,
2013-05-08 17:04:00,69.9,53.5,30.05,WNW,282,4.0,9.0,56,0.00,,,0.00,Wunderground v.1.15,2013-05-09 00:04:00,
2013-05-08 17:06:00,70.0,53.1,30.05,WSW,256,5.0,9.0,55,0.00,,,0.00,Wunderground v.1.15,2013-05-09 00:06:00,
2013-05-08 17:10:00,69.9,54.0,30.05,SW,233,5.0,5.0,57,0.00,,,0.00,Wunderground v.1.15,2013-05-09 00:10:00,
2013-05-08 17:12:00,69.9,54.0,30.05,WSW,258,5.0,5.0,57,0.00,,,0.00,Wunderground v.1.15,2013-05-09 00:12:00,
2013-05-08 17:14:00,70.0,53.6,30.05,WSW,238,5.0,5.0,56,0.00,,,0.00,Wunderground v.1.15,2013-05-09 00:14:00,
2013-05-08 17:16:00,69.7,53.3,30.05,NW,304,5.0,5.0,56,0.00,,,0.00,Wunderground v.1.15,2013-05-09 00:16:00,
2013-05-08 17:20:00,69.4,53.0,30.05,SW,232,5.0,6.0,56,0.00,,,0.00,Wunderground v.1.15,2013-05-09 00:20:00,
2013-05-08 17:22:00,69.4,53.5,30.06,SW,217,5.0,6.0,57,0.00,,,0.00,Wunderground v.1.15,2013-05-09 00:22:00,
2013-05-08 17:24:00,69.3,52.9,30.05,West,269,4.0,6.0,56,0.00,,,0.00,Wunderground v.1.15,2013-05-09 00:24:00,
2013-05-08 17:26:00,69.4,53.0,30.05,West,267,4.0,6.0,56,0.00,,,0.00,Wunderground v.1.15,2013-05-09 00:26:00,
2013-05-08 17:28:00,69.5,53.1,30.05,NW,309,4.0,6.0,56,0.00,,,0.00,Wunderground v.1.15,2013-05-09 00:28:00,
2013-05-08 17:30:00,69.5,52.6,30.05,West,265,4.0,4.0,55,0.00,,,0.00,Wunderground v.1.15,2013-05-09 00:30:00,
2013-05-08 17:32:00,69.3,52.4,30.05,West,279,4.0,4.0,55,0.00,,,0.00,Wunderground v.1.15,2013-05-09 00:32:00,
2013-05-08 17:34:00,69.1,52.2,30.05,West,264,5.0,6.0,55,0.00,,,0.00,Wunderground v.1.15,2013-05-09 00:34:00,
2013-05-08 17:36:00,68.7,52.4,30.05,West,281,5.0,6.0,56,0.00,,,0.00,Wunderground v.1.15,2013-05-09 00:36:00,
2013-05-08 17:38:00,68.5,52.7,30.05,West,263,5.0,7.0,57,0.00,,,0.00,Wunderground v.1.15,2013-05-09 00:38:00,
2013-05-08 17:40:00,68.3,52.5,30.05,West,281,5.0,7.0,57,0.00,,,0.00,Wunderground v.1.15,2013-05-09 00:40:00,
2013-05-08 17:44:00,68.0,52.2,30.06,West,267,5.0,11.0,57,0.00,,,0.00,Wunderground v.1.15,2013-05-09 00:44:00,
2013-05-08 17:46:00,67.8,51.5,30.06,WNW,288,5.0,11.0,56,0.00,,,0.00,Wunderground v.1.15,2013-05-09 00:46:00,
2013-05-08 17:48:00,67.6,51.3,30.05,WNW,302,5.0,11.0,56,0.00,,,0.00,Wunderground v.1.15,2013-05-09 00:48:00,
2013-05-08 17:50:00,67.5,51.2,30.05,West,278,5.0,5.0,56,0.00,,,0.00,Wunderground v.1.15,2013-05-09 00:50:00,
2013-05-08 17:56:00,67.4,51.2,30.05,WNW,285,5.0,5.0,56,0.00,,,0.00,Wunderground v.1.15,2013-05-09 00:56:00,
2013-05-08 17:58:00,67.3,51.1,30.05,West,273,5.0,5.0,56,0.00,,,0.00,Wunderground v.1.15,2013-05-09 00:58:00,
2013-05-08 18:02:00,67.1,50.4,30.05,West,261,7.0,7.0,55,0.00,,,0.00,Wunderground v.1.15,2013-05-09 01:02:00,
2013-05-08 18:04:00,67.0,50.3,30.05,WNW,300,7.0,7.0,55,0.00,,,0.00,Wunderground v.1.15,2013-05-09 01:04:00,
2013-05-08 18:08:00,67.0,50.8,30.06,West,272,6.0,7.0,56,0.00,,,0.00,Wunderground v.1.15,2013-05-09 01:08:00,
2013-05-08 18:12:00,66.9,50.7,30.06,West,274,5.0,11.0,56,0.00,,,0.00,Wunderground v.1.15,2013-05-09 01:12:00,
2013-05-08 18:14:00,66.8,50.6,30.06,WSW,252,5.0,11.0,56,0.00,,,0.00,Wunderground v.1.15,2013-05-09 01:14:00,
2013-05-08 18:18:00,66.5,49.8,30.06,West,267,6.0,11.0,55,0.00,,,0.00,Wunderground v.1.15,2013-05-09 01:18:00,
2013-05-08 18:20:00,66.4,50.2,30.06,WSW,257,7.0,7.0,56,0.00,,,0.00,Wunderground v.1.15,2013-05-09 01:20:00,
2013-05-08 18:22:00,66.4,50.2,30.06,NNW,328,7.0,7.0,56,0.00,,,0.00,Wunderground v.1.15,2013-05-09 01:22:00,
2013-05-08 18:26:00,66.3,50.6,30.06,WNW,288,5.0,7.0,57,0.00,,,0.00,Wunderground v.1.15,2013-05-09 01:26:00,
2013-05-08 18:28:00,66.2,50.5,30.05,WNW,292,4.0,7.0,57,0.00,,,0.00,Wunderground v.1.15,2013-05-09 01:28:00,
2013-05-08 18:30:00,66.2,50.5,30.05,WNW,283,4.0,4.0,57,0.00,,,0.00,Wunderground v.1.15,2013-05-09 01:30:00,
2013-05-08 18:34:00,66.2,50.0,30.05,WNW,284,4.0,9.0,56,0.00,,,0.00,Wunderground v.1.15,2013-05-09 01:34:00,
2013-05-08 18:36:00,66.1,50.4,30.05,WNW,286,4.0,9.0,57,0.00,,,0.00,Wunderground v.1.15,2013-05-09 01:36:00,
2013-05-08 18:40:00,66.0,50.8,30.05,NNW,327,5.0,5.0,58,0.00,,,0.00,Wunderground v.1.15,2013-05-09 01:40:00,
2013-05-08 18:44:00,65.9,51.2,30.05,West,277,5.0,5.0,59,0.00,,,0.00,Wunderground v.1.15,2013-05-09 01:44:00,
2013-05-08 18:46:00,65.9,51.2,30.05,West,281,5.0,5.0,59,0.00,,,0.00,Wunderground v.1.15,2013-05-09 01:46:00,
2013-05-08 18:52:00,65.8,51.1,30.05,West,267,4.0,5.0,59,0.00,,,0.00,Wunderground v.1.15,2013-05-09 01:52:00,
2013-05-08 18:54:00,65.8,51.5,30.05,West,272,4.0,5.0,60,0.00,,,0.00,Wunderground v.1.15,2013-05-09 01:54:00,
2013-05-08 18:58:00,65.7,51.0,30.05,West,273,3.0,5.0,59,0.00,,,0.00,Wunderground v.1.15,2013-05-09 01:58:00,
2013-05-08 19:02:00,65.4,50.2,30.05,West,268,4.0,7.0,58,0.00,,,0.00,Wunderground v.1.15,2013-05-09 02:02:00,
2013-05-08 19:04:00,65.3,50.1,30.05,West,270,4.0,7.0,58,0.00,,,0.00,Wunderground v.1.15,2013-05-09 02:04:00,
2013-05-08 19:06:00,65.3,50.6,30.06,West,279,4.0,7.0,59,0.00,,,0.00,Wunderground v.1.15,2013-05-09 02:06:00,
2013-05-08 19:10:00,65.2,51.0,30.06,West,267,4.0,5.0,60,0.00,,,0.00,Wunderground v.1.15,2013-05-09 02:10:00,
2013-05-08 19:12:00,65.2,51.0,30.06,West,265,4.0,5.0,60,0.00,,,0.00,Wunderground v.1.15,2013-05-09 02:12:00,
2013-05-08 19:18:00,65.1,50.9,30.06,West,273,3.0,5.0,60,0.00,,,0.00,Wunderground v.1.15,2013-05-09 02:18:00,
2013-05-08 19:20:00,65.0,50.8,30.06,West,273,3.0,3.0,60,0.00,,,0.00,Wunderground v.1.15,2013-05-09 02:20:00,
2013-05-08 19:26:00,64.9,51.6,30.06,West,273,2.0,3.0,62,0.00,,,0.00,Wunderground v.1.15,2013-05-09 02:26:00,
2013-05-08 19:28:00,64.9,51.1,30.06,West,273,2.0,4.0,61,0.00,,,0.00,Wunderground v.1.15,2013-05-09 02:28:00,
2013-05-08 19:30:00,64.8,51.0,30.06,West,273,2.0,4.0,61,0.00,,,0.00,Wunderground v.1.15,2013-05-09 02:30:00,
2013-05-08 19:32:00,64.8,51.0,30.06,West,279,3.0,4.0,61,0.00,,,0.00,Wunderground v.1.15,2013-05-09 02:32:00,
2013-05-08 19:38:00,64.6,51.7,30.06,West,277,2.0,4.0,63,0.00,,,0.00,Wunderground v.1.15,2013-05-09 02:38:00,
2013-05-08 19:40:00,64.5,52.0,30.06,West,277,2.0,2.0,64,0.00,,,0.00,Wunderground v.1.15,2013-05-09 02:40:00,
2013-05-08 19:44:00,64.3,51.9,30.06,West,277,1.0,2.0,64,0.00,,,0.00,Wunderground v.1.15,2013-05-09 02:44:00,
2013-05-08 19:46:00,64.3,52.3,30.06,West,277,1.0,3.0,65,0.00,,,0.00,Wunderground v.1.15,2013-05-09 02:46:00,
2013-05-08 19:50:00,64.1,52.1,30.06,NW,311,2.0,2.0,65,0.00,,,0.00,Wunderground v.1.15,2013-05-09 02:50:00,
2013-05-08 19:52:00,64.0,52.0,30.06,NW,311,2.0,2.0,65,0.00,,,0.00,Wunderground v.1.15,2013-05-09 02:52:00,
2013-05-08 19:54:00,63.9,51.9,30.06,NW,315,2.0,4.0,65,0.00,,,0.00,Wunderground v.1.15,2013-05-09 02:54:00,
2013-05-08 19:56:00,63.8,51.8,30.06,NW,315,2.0,4.0,65,0.00,,,0.00,Wunderground v.1.15,2013-05-09 02:56:00,
2013-05-08 20:00:00,63.7,52.1,30.06,NW,314,2.0,2.0,66,0.00,,,0.00,Wunderground v.1.15,2013-05-09 03:00:00,
2013-05-08 20:02:00,63.6,52.0,30.06,WNW,283,2.0,4.0,66,0.00,,,0.00,Wunderground v.1.15,2013-05-09 03:02:00,
2013-05-08 20:04:00,63.6,52.0,30.06,WNW,283,2.0,4.0,66,0.00,,,0.00,Wunderground v.1.15,2013-05-09 03:04:00,
2013-05-08 20:06:00,63.5,51.9,30.06,WNW,289,2.0,4.0,66,0.00,,,0.00,Wunderground v.1.15,2013-05-09 03:06:00,
2013-05-08 20:12:00,63.4,52.7,30.06,West,278,3.0,4.0,68,0.00,,,0.00,Wunderground v.1.15,2013-05-09 03:12:00,
2013-05-08 20:14:00,63.4,52.7,30.06,West,278,3.0,4.0,68,0.00,,,0.00,Wunderground v.1.15,2013-05-09 03:14:00,
2013-05-08 20:18:00,63.3,52.6,30.06,West,278,1.0,4.0,68,0.00,,,0.00,Wunderground v.1.15,2013-05-09 03:18:00,
2013-05-08 20:20:00,63.2,52.5,30.06,West,278,1.0,2.0,68,0.00,,,0.00,Wunderground v.1.15,2013-05-09 03:20:00,
2013-05-08 20:26:00,63.1,52.4,30.06,West,278,1.0,2.0,68,0.00,,,0.00,Wunderground v.1.15,2013-05-09 03:26:00,
2013-05-08 20:28:00,63.0,52.3,30.06,West,278,1.0,2.0,68,0.00,,,0.00,Wunderground v.1.15,2013-05-09 03:28:00,
2013-05-08 20:30:00,62.9,52.2,30.06,West,278,1.0,1.0,68,0.00,,,0.00,Wunderground v.1.15,2013-05-09 03:30:00,
2013-05-08 20:32:00,62.9,52.6,30.06,West,278,1.0,2.0,69,0.00,,,0.00,Wunderground v.1.15,2013-05-09 03:32:00,
2013-05-08 20:36:00,62.9,53.0,30.06,West,278,1.0,2.0,70,0.00,,,0.00,Wunderground v.1.15,2013-05-09 03:36:00,
2013-05-08 20:38:00,62.9,53.0,30.06,West,278,1.0,2.0,70,0.00,,,0.00,Wunderground v.1.15,2013-05-09 03:38:00,
2013-05-08 20:42:00,62.8,52.9,30.06,West,278,1.0,1.0,70,0.00,,,0.00,Wunderground v.1.15,2013-05-09 03:42:00,
2013-05-08 20:44:00,62.8,52.9,30.06,West,278,1.0,1.0,70,0.00,,,0.00,Wunderground v.1.15,2013-05-09 03:44:00,
2013-05-08 20:48:00,62.7,52.8,30.06,West,278,1.0,2.0,70,0.00,,,0.00,Wunderground v.1.15,2013-05-09 03:48:00,
2013-05-08 20:50:00,62.7,52.4,30.06,West,278,1.0,1.0,69,0.00,,,0.00,Wunderground v.1.15,2013-05-09 03:50:00,
2013-05-08 20:54:00,62.7,52.4,30.06,West,278,1.0,1.0,69,0.00,,,0.00,Wunderground v.1.15,2013-05-09 03:54:00,
2013-05-08 20:56:00,62.6,52.7,30.06,West,278,1.0,1.0,70,0.00,,,0.00,Wunderground v.1.15,2013-05-09 03:56:00,
2013-05-08 20:58:00,62.6,52.7,30.06,West,278,0.0,1.0,70,0.00,,,0.00,Wunderground v.1.15,2013-05-09 03:58:00,
2013-05-08 21:02:00,62.4,52.5,30.06,West,278,0.0,0.0,70,0.00,,,0.00,Wunderground v.1.15,2013-05-09 04:02:00,
2013-05-08 21:06:00,62.3,52.4,30.07,West,278,0.0,0.0,70,0.00,,,0.00,Wunderground v.1.15,2013-05-09 04:06:00,
2013-05-08 21:08:00,62.2,52.3,30.07,West,278,0.0,0.0,70,0.00,,,0.00,Wunderground v.1.15,2013-05-09 04:08:00,
2013-05-08 21:12:00,62.1,52.6,30.07,West,278,0.0,0.0,71,0.00,,,0.00,Wunderground v.1.15,2013-05-09 04:12:00,
2013-05-08 21:14:00,62.1,52.6,30.07,West,278,0.0,0.0,71,0.00,,,0.00,Wunderground v.1.15,2013-05-09 04:14:00,
2013-05-08 21:18:00,62.0,52.9,30.07,West,278,0.0,0.0,72,0.00,,,0.00,Wunderground v.1.15,2013-05-09 04:18:00,
2013-05-08 21:20:00,61.9,52.8,30.07,West,278,0.0,0.0,72,0.00,,,0.00,Wunderground v.1.15,2013-05-09 04:20:00,
2013-05-08 21:22:00,61.9,52.8,30.07,West,278,0.0,2.0,72,0.00,,,0.00,Wunderground v.1.15,2013-05-09 04:22:00,
2013-05-08 21:26:00,61.9,53.1,30.07,West,278,0.0,2.0,73,0.00,,,0.00,Wunderground v.1.15,2013-05-09 04:26:00,
2013-05-08 21:28:00,62.0,53.2,30.07,West,278,0.0,2.0,73,0.00,,,0.00,Wunderground v.1.15,2013-05-09 04:28:00,
2013-05-08 21:30:00,61.9,53.1,30.07,West,278,0.0,2.0,73,0.00,,,0.00,Wunderground v.1.15,2013-05-09 04:30:00,
2013-05-08 21:34:00,61.9,53.1,30.07,West,278,1.0,2.0,73,0.00,,,0.00,Wunderground v.1.15,2013-05-09 04:34:00,
2013-05-08 21:36:00,62.0,53.2,30.07,West,278,1.0,2.0,73,0.00,,,0.00,Wunderground v.1.15,2013-05-09 04:36:00,
2013-05-08 21:40:00,61.9,53.1,30.07,West,278,1.0,1.0,73,0.00,,,0.00,Wunderground v.1.15,2013-05-09 04:40:00,
2013-05-08 21:42:00,61.9,52.8,30.07,West,278,0.0,1.0,72,0.00,,,0.00,Wunderground v.1.15,2013-05-09 04:42:00,
2013-05-08 21:44:00,61.9,52.8,30.07,West,278,0.0,1.0,72,0.00,,,0.00,Wunderground v.1.15,2013-05-09 04:44:00,
2013-05-08 21:48:00,61.8,52.7,30.07,West,278,0.0,2.0,72,0.00,,,0.00,Wunderground v.1.15,2013-05-09 04:48:00,
2013-05-08 21:50:00,61.8,52.3,30.07,West,278,0.0,0.0,71,0.00,,,0.00,Wunderground v.1.15,2013-05-09 04:50:00,
2013-05-08 21:52:00,61.8,52.3,30.07,West,278,0.0,1.0,71,0.00,,,0.00,Wunderground v.1.15,2013-05-09 04:52:00,
2013-05-08 21:56:00,61.7,52.2,30.07,West,278,0.0,1.0,71,0.00,,,0.00,Wunderground v.1.15,2013-05-09 04:56:00,
2013-05-08 22:02:00,61.7,52.2,30.08,West,278,0.0,0.0,71,0.00,,,0.00,Wunderground v.1.15,2013-05-09 05:02:00,
2013-05-08 22:04:00,61.7,52.2,30.08,West,278,0.0,0.0,71,0.00,,,0.00,Wunderground v.1.15,2013-05-09 05:04:00,
2013-05-08 22:08:00,61.6,52.1,30.08,West,278,0.0,0.0,71,0.00,,,0.00,Wunderground v.1.15,2013-05-09 05:08:00,
2013-05-08 22:10:00,61.5,52.0,30.08,West,278,0.0,0.0,71,0.00,,,0.00,Wunderground v.1.15,2013-05-09 05:10:00,
2013-05-08 22:14:00,61.4,51.5,30.08,West,278,0.0,1.0,70,0.00,,,0.00,Wunderground v.1.15,2013-05-09 05:14:00,
2013-05-08 22:16:00,61.4,51.1,30.08,West,278,0.0,1.0,69,0.00,,,0.00,Wunderground v.1.15,2013-05-09 05:16:00,
2013-05-08 22:20:00,61.5,51.2,30.08,West,278,1.0,1.0,69,0.00,,,0.00,Wunderground v.1.15,2013-05-09 05:20:00,
2013-05-08 22:26:00,61.5,51.2,30.08,West,278,0.0,1.0,69,0.00,,,0.00,Wunderground v.1.15,2013-05-09 05:26:00,
2013-05-08 22:28:00,61.4,51.1,30.08,West,278,0.0,1.0,69,0.00,,,0.00,Wunderground v.1.15,2013-05-09 05:28:00,
2013-05-08 22:30:00,61.4,50.7,30.08,West,278,0.0,0.0,68,0.00,,,0.00,Wunderground v.1.15,2013-05-09 05:30:00,
2013-05-08 22:36:00,61.3,50.6,30.08,West,278,0.0,0.0,68,0.00,,,0.00,Wunderground v.1.15,2013-05-09 05:36:00,
2013-05-08 22:38:00,61.2,50.6,30.08,West,278,0.0,2.0,68,0.00,,,0.00,Wunderground v.1.15,2013-05-09 05:38:00,
2013-05-08 22:40:00,61.2,50.6,30.08,West,278,0.0,0.0,68,0.00,,,0.00,Wunderground v.1.15,2013-05-09 05:40:00,
2013-05-08 22:42:00,61.1,50.5,30.08,West,278,0.0,0.0,68,0.00,,,0.00,Wunderground v.1.15,2013-05-09 05:42:00,
2013-05-08 22:46:00,61.1,50.5,30.08,West,278,0.0,0.0,68,0.00,,,0.00,Wunderground v.1.15,2013-05-09 05:46:00,
2013-05-08 22:48:00,61.1,50.5,30.08,West,278,0.0,1.0,68,0.00,,,0.00,Wunderground v.1.15,2013-05-09 05:48:00,
2013-05-08 22:54:00,61.2,50.6,30.08,West,278,0.0,1.0,68,0.00,,,0.00,Wunderground v.1.15,2013-05-09 05:54:00,
2013-05-08 22:56:00,61.2,50.6,30.08,SW,227,1.0,1.0,68,0.00,,,0.00,Wunderground v.1.15,2013-05-09 05:56:00,
2013-05-08 22:58:00,61.2,50.6,30.08,WSW,258,1.0,2.0,68,0.00,,,0.00,Wunderground v.1.15,2013-05-09 05:58:00,
2013-05-08 23:02:00,61.3,50.6,30.08,WSW,258,1.0,1.0,68,0.00,,,0.00,Wunderground v.1.15,2013-05-09 06:02:00,
2013-05-08 23:08:00,61.4,50.7,30.08,WSW,258,0.0,1.0,68,0.00,,,0.00,Wunderground v.1.15,2013-05-09 06:08:00,
2013-05-08 23:10:00,61.4,50.7,30.08,WSW,258,0.0,0.0,68,0.00,,,0.00,Wunderground v.1.15,2013-05-09 06:10:00,
2013-05-08 23:12:00,61.3,50.6,30.08,WSW,258,0.0,0.0,68,0.00,,,0.00,Wunderground v.1.15,2013-05-09 06:12:00,
2013-05-08 23:14:00,61.3,50.6,30.08,WSW,258,0.0,0.0,68,0.00,,,0.00,Wunderground v.1.15,2013-05-09 06:14:00,
2013-05-08 23:18:00,61.3,51.4,30.08,WSW,258,0.0,0.0,70,0.00,,,0.00,Wunderground v.1.15,2013-05-09 06:18:00,
2013-05-08 23:20:00,61.2,51.3,30.08,WSW,258,0.0,0.0,70,0.00,,,0.00,Wunderground v.1.15,2013-05-09 06:20:00,
2013-05-08 23:24:00,61.0,51.1,30.08,WSW,258,0.0,0.0,70,0.00,,,0.00,Wunderground v.1.15,2013-05-09 06:24:00,
2013-05-08 23:26:00,60.9,51.0,30.08,WSW,258,0.0,0.0,70,0.00,,,0.00,Wunderground v.1.15,2013-05-09 06:26:00,
2013-05-08 23:28:00,60.8,51.3,30.08,WSW,258,0.0,0.0,71,0.00,,,0.00,Wunderground v.1.15,2013-05-09 06:28:00,
2013-05-08 23:34:00,60.4,51.3,30.08,WSW,258,0.0,0.0,72,0.00,,,0.00,Wunderground v.1.15,2013-05-09 06:34:00,
2013-05-08 23:38:00,60.2,51.5,30.08,WSW,258,0.0,0.0,73,0.00,,,0.00,Wunderground v.1.15,2013-05-09 06:38:00,
2013-05-08 23:40:00,60.1,51.8,30.08,WSW,258,0.0,0.0,74,0.00,,,0.00,Wunderground v.1.15,2013-05-09 06:40:00,
2013-05-08 23:44:00,60.0,52.4,30.08,WSW,258,0.0,0.0,76,0.00,,,0.00,Wunderground v.1.15,2013-05-09 06:44:00,
2013-05-08 23:46:00,60.1,52.9,30.08,WSW,258,0.0,0.0,77,0.00,,,0.00,Wunderground v.1.15,2013-05-09 06:46:00,
2013-05-08 23:50:00,60.0,52.8,30.08,WSW,258,0.0,0.0,77,0.00,,,0.00,Wunderground v.1.15,2013-05-09 06:50:00,
2013-05-08 23:54:00,60.0,52.8,30.08,WSW,258,0.0,0.0,77,0.00,,,0.00,Wunderground v.1.15,2013-05-09 06:54:00,
2013-05-08 23:56:00,59.9,52.7,30.08,WSW,258,0.0,0.0,77,0.00,,,0.00,Wunderground v.1.15,2013-05-09 06:56:00,
2013-05-08 23:58:00,59.9,53.0,30.08,WSW,258,0.0,0.0,78,0.00,,,0.00,Wunderground v.1.15,2013-05-09 06:58:00,